When you browse on this site, cookies collect data to enhance your experience and personalize the content and advertising you see.
Visit our Privacy Policy to learn more. By continuing to use the site, you agree to this use of cookies and data.
EN

Hourly Weather Tibissa

Today, 7 July, Tuesday

Time Temperature Precipitation Wind Pressure Humidity
00:00 +20°C° 0 mm 5 mps 685 mmHg 57%
01:00 +20°C° 0 mm 5 mps 685 mmHg 60%
02:00 +19°C° 0 mm 5 mps 684 mmHg 61%
03:00 +19°C° 0 mm 5 mps 684 mmHg 62%
04:00 +19°C° 0 mm 6 mps 683 mmHg 63%
05:00 +19°C° 0 mm 6 mps 684 mmHg 61%
06:00 +19°C° 0 mm 6 mps 684 mmHg 59%
07:00 +20°C° 0 mm 6 mps 685 mmHg 57%
08:00 +21°C° 0 mm 7 mps 685 mmHg 50%
09:00 +23°C° 0 mm 8 mps 685 mmHg 43%
10:00 +26°C° 0 mm 8 mps 686 mmHg 36%
11:00 +27°C° 0 mm 9 mps 686 mmHg 33%
12:00 +29°C° 0 mm 9 mps 687 mmHg 30%
13:00 +31°C° 0 mm 9 mps 687 mmHg 27%
14:00 +31°C° 0 mm 9 mps 687 mmHg 27%
15:00 +32°C° 0 mm 8 mps 686 mmHg 26%
16:00 +32°C° 0 mm 8 mps 686 mmHg 25%
17:00 +31°C° 0 mm 8 mps 686 mmHg 29%
18:00 +29°C° 0 mm 7 mps 686 mmHg 33%
19:00 +28°C° 0 mm 7 mps 686 mmHg 37%
20:00 +26°C° 0 mm 5 mps 686 mmHg 41%
21:00 +25°C° 0 mm 4 mps 686 mmHg 46%
22:00 +24°C° 0 mm 2 mps 686 mmHg 50%
23:00 +23°C° 0 mm 2 mps 686 mmHg 51%

Tomorrow, 8 July, Wednesday

Time Temperature Precipitation Wind Pressure Humidity
00:00 +23°C° 0 mm 2 mps 686 mmHg 53%
01:00 +21°C° 0 mm 2 mps 686 mmHg 54%
02:00 +21°C° 0 mm 2 mps 686 mmHg 55%
03:00 +20°C° 0 mm 2 mps 685 mmHg 56%
04:00 +20°C° 0 mm 2 mps 685 mmHg 57%
05:00 +21°C° 0 mm 2 mps 686 mmHg 54%
06:00 +23°C° 0 mm 1 mps 686 mmHg 51%
07:00 +24°C° 0 mm 1 mps 686 mmHg 48%
08:00 +25°C° 0 mm 2 mps 687 mmHg 41%
09:00 +27°C° 0 mm 4 mps 688 mmHg 35%
10:00 +29°C° 0 mm 5 mps 688 mmHg 28%
11:00 +32°C° 0 mm 5 mps 688 mmHg 24%
12:00 +33°C° 0 mm 5 mps 688 mmHg 20%
13:00 +34°C° 0 mm 5 mps 688 mmHg 16%
14:00 +35°C° 0 mm 5 mps 688 mmHg 15%
15:00 +35°C° 0 mm 5 mps 688 mmHg 15%
16:00 +36°C° 0 mm 6 mps 687 mmHg 14%
17:00 +34°C° 0 mm 6 mps 687 mmHg 15%
18:00 +33°C° 0 mm 6 mps 687 mmHg 17%
19:00 +32°C° 0 mm 7 mps 687 mmHg 18%
20:00 +29°C° 0 mm 5 mps 687 mmHg 21%
21:00 +27°C° 0 mm 4 mps 687 mmHg 25%
22:00 +26°C° 0 mm 2 mps 687 mmHg 29%
23:00 +25°C° 0 mm 2 mps 687 mmHg 33%

Day after tomorrow, 9 July, Thursday

Time Temperature Precipitation Wind Pressure Humidity
00:00 +24°C° 0 mm 1 mps 687 mmHg 37%
01:00 +23°C° 0 mm 1 mps 687 mmHg 41%
02:00 +22°C° 0 mm 1 mps 687 mmHg 45%
03:00 +22°C° 0 mm 1 mps 686 mmHg 48%
04:00 +19°C° 0 mm 0 mps 686 mmHg 51%
05:00 +22°C° 0 mm 1 mps 686 mmHg 49%
06:00 +23°C° 0 mm 1 mps 687 mmHg 46%
07:00 +24°C° 0 mm 1 mps 687 mmHg 43%
08:00 +25°C° 0 mm 1 mps 688 mmHg 37%
09:00 +27°C° 0 mm 1 mps 688 mmHg 31%
10:00 +29°C° 0 mm 1 mps 688 mmHg 26%
11:00 +30°C° 0 mm 1 mps 688 mmHg 22%
12:00 +32°C° 0 mm 1 mps 688 mmHg 18%
13:00 +33°C° 0 mm 1 mps 688 mmHg 15%
14:00 +35°C° 0 mm 2 mps 688 mmHg 13%
15:00 +35°C° 0 mm 3 mps 688 mmHg 12%
16:00 +36°C° 0 mm 4 mps 687 mmHg 11%
17:00 +35°C° 0 mm 4 mps 687 mmHg 12%
18:00 +35°C° 0 mm 4 mps 687 mmHg 13%
19:00 +34°C° 0 mm 4 mps 687 mmHg 14%
20:00 +32°C° 0 mm 4 mps 687 mmHg 22%
21:00 +29°C° 0 mm 4 mps 688 mmHg 31%
22:00 +27°C° 0 mm 4 mps 688 mmHg 39%
23:00 +26°C° 0 mm 3 mps 687 mmHg 45%

10 July, Friday

Time Temperature Precipitation Wind Pressure Humidity
00:00 +25°C° 0 mm 2 mps 687 mmHg 51%
01:00 +24°C° 0 mm 1 mps 687 mmHg 57%
02:00 +22°C° 0 mm 0 mps 686 mmHg 59%
03:00 +21°C° 0 mm 0 mps 686 mmHg 61%
04:00 +20°C° 0 mm 0 mps 685 mmHg 63%
05:00 +21°C° 0 mm 0 mps 685 mmHg 58%
06:00 +24°C° 0 mm 1 mps 686 mmHg 53%
07:00 +25°C° 0 mm 1 mps 686 mmHg 48%
08:00 +27°C° 0 mm 1 mps 687 mmHg 40%
09:00 +29°C° 0 mm 2 mps 687 mmHg 31%
10:00 +31°C° 0 mm 3 mps 688 mmHg 23%
11:00 +33°C° 0 mm 3 mps 688 mmHg 21%
12:00 +35°C° 0 mm 4 mps 688 mmHg 18%
13:00 +36°C° 0 mm 5 mps 687 mmHg 16%
14:00 +36°C° 0 mm 5 mps 687 mmHg 16%
15:00 +36°C° 0 mm 5 mps 687 mmHg 16%
16:00 +36°C° 0 mm 6 mps 687 mmHg 16%
17:00 +36°C° 0 mm 6 mps 686 mmHg 17%
18:00 +35°C° 0 mm 6 mps 686 mmHg 18%
19:00 +34°C° 0 mm 6 mps 686 mmHg 20%
20:00 +33°C° 0 mm 5 mps 687 mmHg 26%
21:00 +30°C° 0 mm 4 mps 687 mmHg 33%
22:00 +28°C° 0 mm 3 mps 687 mmHg 39%
23:00 +27°C° 0 mm 2 mps 687 mmHg 43%

11 July, Saturday

Time Temperature Precipitation Wind Pressure Humidity
00:00 +26°C° 0 mm 1 mps 687 mmHg 47%
01:00 +23°C° 0 mm 0 mps 686 mmHg 51%
02:00 +23°C° 0 mm 0 mps 686 mmHg 53%
03:00 +22°C° 0 mm 0 mps 686 mmHg 54%
04:00 +22°C° 0 mm 0 mps 685 mmHg 56%
05:00 +23°C° 0 mm 0 mps 686 mmHg 52%
06:00 +24°C° 0 mm 0 mps 686 mmHg 48%
07:00 +25°C° 0 mm 0 mps 686 mmHg 44%
08:00 +28°C° 0 mm 1 mps 687 mmHg 37%
09:00 +30°C° 0 mm 1 mps 687 mmHg 31%
10:00 +32°C° 0 mm 2 mps 688 mmHg 24%
11:00 +34°C° 0 mm 3 mps 688 mmHg 22%
12:00 +35°C° 0 mm 3 mps 688 mmHg 19%
13:00 +36°C° 0 mm 4 mps 688 mmHg 17%
14:00 +37°C° 0 mm 4 mps 688 mmHg 16%
15:00 +37°C° 0 mm 4 mps 687 mmHg 16%
16:00 +37°C° 0 mm 4 mps 687 mmHg 16%
17:00 +36°C° 0 mm 4 mps 687 mmHg 17%
18:00 +36°C° 0 mm 4 mps 687 mmHg 17%
19:00 +35°C° 0 mm 4 mps 687 mmHg 18%
20:00 +34°C° 0 mm 4 mps 687 mmHg 23%
21:00 +32°C° 0 mm 5 mps 687 mmHg 27%
22:00 +29°C° 0 mm 5 mps 687 mmHg 32%
23:00 +29°C° 0 mm 4 mps 687 mmHg 35%

12 July, Sunday

Time Temperature Precipitation Wind Pressure Humidity
00:00 +28°C° 0 mm 3 mps 687 mmHg 39%
01:00 +27°C° 0 mm 2 mps 687 mmHg 42%
02:00 +26°C° 0 mm 2 mps 686 mmHg 44%
03:00 +26°C° 0 mm 1 mps 686 mmHg 45%
04:00 +25°C° 0 mm 1 mps 686 mmHg 47%
05:00 +26°C° 0 mm 1 mps 686 mmHg 44%
06:00 +27°C° 0 mm 1 mps 687 mmHg 41%
07:00 +28°C° 0 mm 1 mps 687 mmHg 38%
08:00 +30°C° 0 mm 1 mps 687 mmHg 32%
09:00 +32°C° 0 mm 1 mps 688 mmHg 26%
10:00 +34°C° 0 mm 1 mps 688 mmHg 21%
11:00 +35°C° 0 mm 1 mps 688 mmHg 19%
12:00 +36°C° 0 mm 1 mps 688 mmHg 17%
13:00 +37°C° 0 mm 1 mps 688 mmHg 16%
14:00 +38°C° 0 mm 2 mps 688 mmHg 15%
15:00 +38°C° 0 mm 2 mps 688 mmHg 15%
16:00 +38°C° 0 mm 3 mps 688 mmHg 15%
17:00 +38°C° 0 mm 4 mps 687 mmHg 16%
18:00 +37°C° 0 mm 5 mps 687 mmHg 18%
19:00 +36°C° 0 mm 5 mps 687 mmHg 20%
20:00 +34°C° 0 mm 5 mps 687 mmHg 23%
21:00 +33°C° 0 mm 4 mps 687 mmHg 25%
22:00 +30°C° 0 mm 4 mps 687 mmHg 28%
23:00 +29°C° 0 mm 3 mps 687 mmHg 30%
Show more